Weather History for Moorhead, MN

Change the Weather History Date:

Tuesday, November 6, 2012

  Actual Average (KFAR) Record (KFAR)
Temperature  
Mean Temperature 40 °F 35 °F  
Max Temperature 44 °F 44 °F 70 °F (1887)
Min Temperature 35 °F 26 °F -4 °F (1991)
Degree Days  
Heating Degree Days 26 30  
Month to date heating degree days 173  
Since 1 July heating degree days 1049  
Cooling Degree Days 0 0  
Month to date cooling degree days 0  
Year to date cooling degree days 551  
Moisture  
Dew Point 38 °F    
Average Humidity 91    
Maximum Humidity 100    
Minimum Humidity 81    
Precipitation  
Precipitation 0.00 in 0.03 in 0.95 in (2000)
Month to date precipitation 0.22  
Year to date precipitation 21.00  
Snow  
Snow 0.00 in 0.10 in 2.80 in (1962)
Month to date snowfall 0.7  
Since 1 July snowfall 1.4  
Since 1 September snowfall 1.4  
Snow Depth -    
Sea Level Pressure  
Sea Level Pressure 29.88 in    
Wind  
Wind Speed 14 mph (NW)    
Max Wind Speed 30 mph    
Max Gust Speed 38 mph    
Visibility 10 miles    
Events      
T = Trace of Precipitation, MM = Missing Value Source: NWS Daily Summary

Daily Weather History Graph

Daily Weather History Graph

Search for Another Location

Airport:

Trip Planner

Search our weather history database for the weather conditions in past years. The results will help you decide how hot, cold, wet, or windy it might be!

Date:

Astronomy

Nov. 06, 2012 Rise Set
Actual Time 7:17 AM CST 5:02 PM CST
Civil Twilight 6:44 AM CST 5:35 PM CST
Nautical Twilight 6:08 AM CST 6:11 PM CST
Astronomical Twilight 5:33 AM CST 6:46 PM CST
Moon 11:48 PM CST (11/6) 1:06 PM CST (11/6)
Length of Visible Light 10h 50m
Length of Day
9h 45m
Waning Gibbous, 53% of the Moon is Illuminated
Nov 6
Waning Gibbous
Nov 6
Last Quarter
Nov 13
New
Nov 20
First Quarter
Nov 28
Full

Hourly Weather History & Observations

Time (CST) Temp. Windchill Dew Point Humidity Pressure Visibility Wind Dir Wind Speed Gust Speed Precip Events Conditions
12:15 AM 37.4 °F 28.5 °F 37.4 °F 100% 29.75 in 5.0 mi SSW 15.0 mph - N/A   Overcast
12:35 AM 39.2 °F 33.0 °F 39.2 °F 100% 29.76 in 7.0 mi SW 9.2 mph 18.4 mph N/A   Overcast
12:55 AM 39.2 °F 35.0 °F 39.2 °F 100% 29.76 in 7.0 mi WNW 5.8 mph - N/A   Overcast
1:15 AM 39.2 °F 35.0 °F 39.2 °F 100% 29.75 in 7.0 mi West 5.8 mph - N/A   Overcast
1:34 AM 41.0 °F 33.5 °F 41.0 °F 100% 29.74 in 10.0 mi NW 13.8 mph - N/A   Overcast
1:55 AM 41.0 °F 35.2 °F 41.0 °F 100% 29.74 in 10.0 mi NW 9.2 mph - N/A   Mostly Cloudy
2:15 AM 39.2 °F 31.6 °F 39.2 °F 100% 29.75 in 10.0 mi WNW 12.7 mph - N/A   Scattered Clouds
2:34 AM 39.2 °F 32.0 °F 39.2 °F 100% 29.76 in 10.0 mi WNW 11.5 mph - N/A   Clear
2:55 AM 39.2 °F 31.6 °F 37.4 °F 93% 29.76 in 10.0 mi WNW 12.7 mph - N/A   Clear
3:15 AM 39.2 °F 31.6 °F 37.4 °F 93% 29.76 in 10.0 mi WNW 12.7 mph - N/A   Clear
3:34 AM 37.4 °F 28.9 °F 37.4 °F 100% 29.76 in 10.0 mi WNW 13.8 mph - N/A   Clear
3:55 AM 37.4 °F 29.8 °F 37.4 °F 100% 29.76 in 10.0 mi WNW 11.5 mph - N/A   Clear
4:15 AM 37.4 °F 30.3 °F 35.6 °F 93% 29.76 in 10.0 mi WNW 10.4 mph - N/A   Clear
4:34 AM 35.6 °F 28.6 °F 35.6 °F 100% 29.77 in 10.0 mi WNW 9.2 mph - N/A   Clear
4:55 AM 35.6 °F 27.5 °F 35.6 °F 100% 29.77 in 10.0 mi WNW 11.5 mph - N/A   Clear
5:14 AM 37.4 °F 30.3 °F 35.6 °F 93% 29.78 in 10.0 mi WNW 10.4 mph - N/A   Clear
5:35 AM 35.6 °F 28.0 °F 35.6 °F 100% 29.78 in 10.0 mi NW 10.4 mph - N/A   Clear
5:55 AM 35.6 °F 28.6 °F 35.6 °F 100% 29.79 in 10.0 mi NW 9.2 mph - N/A   Scattered Clouds
6:14 AM 37.4 °F 29.8 °F 35.6 °F 93% 29.80 in 10.0 mi NW 11.5 mph - N/A   Mostly Cloudy
6:35 AM 37.4 °F 31.4 °F 37.4 °F 100% 29.80 in 10.0 mi WNW 8.1 mph - N/A   Overcast
6:55 AM 37.4 °F 30.8 °F 37.4 °F 100% 29.80 in 10.0 mi WNW 9.2 mph - N/A   Overcast
7:14 AM 39.2 °F 31.2 °F 37.4 °F 93% 29.80 in 10.0 mi WNW 13.8 mph - N/A   Overcast
7:35 AM 39.2 °F 31.2 °F 37.4 °F 93% 29.80 in 10.0 mi NW 13.8 mph 20.7 mph N/A   Overcast
7:54 AM 39.2 °F 29.3 °F 37.4 °F 93% 29.80 in 10.0 mi NW 20.7 mph 27.6 mph N/A   Overcast
8:15 AM 41.0 °F 31.9 °F 37.4 °F 87% 29.81 in 10.0 mi NW 19.6 mph 31.1 mph N/A   Overcast
8:35 AM 41.0 °F 31.6 °F 37.4 °F 87% 29.81 in 10.0 mi NW 20.7 mph - N/A   Overcast
8:54 AM 41.0 °F 31.1 °F 37.4 °F 87% 29.82 in 10.0 mi NW 23.0 mph 26.5 mph N/A   Overcast
9:15 AM 41.0 °F 31.4 °F 37.4 °F 87% 29.82 in 10.0 mi NW 21.9 mph 27.6 mph N/A   Overcast
9:35 AM 41.0 °F 31.4 °F 37.4 °F 87% 29.83 in 10.0 mi NW 21.9 mph 29.9 mph N/A   Overcast
9:54 AM 41.0 °F 30.5 °F 37.4 °F 87% 29.83 in 10.0 mi NW 26.5 mph 29.9 mph N/A   Overcast
10:15 AM 42.8 °F 33.1 °F 37.4 °F 81% 29.84 in 10.0 mi NW 25.3 mph 34.5 mph N/A   Overcast
10:35 AM 42.8 °F 34.0 °F 39.2 °F 87% 29.84 in 10.0 mi NW 20.7 mph 29.9 mph N/A   Overcast
10:54 AM 42.8 °F 33.5 °F 39.2 °F 87% 29.85 in 10.0 mi NW 23.0 mph 32.2 mph N/A   Overcast
11:15 AM 42.8 °F 33.1 °F 39.2 °F 87% 29.84 in 10.0 mi NW 25.3 mph 29.9 mph N/A   Overcast
11:35 AM 44.6 °F 34.7 °F 39.2 °F 81% 29.85 in 10.0 mi NNW 29.9 mph 35.7 mph N/A   Overcast
11:55 AM 42.8 °F 33.5 °F 39.2 °F 87% 29.86 in 10.0 mi NNW 23.0 mph 35.7 mph N/A   Overcast
12:14 PM 42.8 °F 32.7 °F 39.2 °F 87% 29.86 in 10.0 mi NNW 27.6 mph 38.0 mph N/A   Overcast
12:35 PM 44.6 °F 35.3 °F 39.2 °F 81% 29.86 in 10.0 mi NNW 26.5 mph 34.5 mph N/A   Overcast
12:55 PM 44.6 °F 35.5 °F 39.2 °F 81% 29.86 in 10.0 mi NNW 25.3 mph 35.7 mph N/A   Overcast
1:15 PM 44.6 °F 35.3 °F 39.2 °F 81% 29.87 in 10.0 mi NNW 26.5 mph 34.5 mph N/A   Overcast
1:35 PM 44.6 °F 35.5 °F 39.2 °F 81% 29.87 in 10.0 mi North 25.3 mph 32.2 mph N/A   Overcast
1:54 PM 44.6 °F 36.4 °F 39.2 °F 81% 29.88 in 10.0 mi NNW 20.7 mph 28.8 mph N/A   Overcast
2:15 PM 44.6 °F 35.9 °F 39.2 °F 81% 29.89 in 10.0 mi NNW 23.0 mph 29.9 mph N/A   Overcast
2:34 PM 44.6 °F 36.6 °F 39.2 °F 81% 29.90 in 10.0 mi NNW 19.6 mph 25.3 mph N/A   Overcast
2:55 PM 44.6 °F 35.7 °F 39.2 °F 81% 29.91 in 10.0 mi NNW 24.2 mph 28.8 mph N/A   Overcast
3:15 PM 44.6 °F 36.6 °F 39.2 °F 81% 29.92 in 10.0 mi NNW 19.6 mph - N/A   Overcast
3:34 PM 44.6 °F 35.5 °F 39.2 °F 81% 29.93 in 10.0 mi NW 25.3 mph 29.9 mph N/A   Overcast
3:55 PM 42.8 °F 34.8 °F 41.0 °F 93% 29.93 in 10.0 mi NNW 17.3 mph 28.8 mph N/A   Drizzle
4:15 PM 42.8 °F 34.3 °F 39.2 °F 87% 29.94 in 10.0 mi NW 19.6 mph 25.3 mph N/A   Overcast
4:35 PM 42.8 °F 34.3 °F 39.2 °F 87% 29.95 in 10.0 mi NW 19.6 mph 25.3 mph N/A   Overcast
4:55 PM 42.8 °F 34.5 °F 39.2 °F 87% 29.96 in 10.0 mi NW 18.4 mph 25.3 mph N/A   Overcast
5:14 PM 42.8 °F 34.5 °F 39.2 °F 87% 29.97 in 10.0 mi NW 18.4 mph - N/A   Overcast
5:35 PM 42.8 °F 34.8 °F 39.2 °F 87% 29.97 in 10.0 mi NNW 17.3 mph - N/A   Overcast
5:55 PM 42.8 °F 35.1 °F 39.2 °F 87% 29.98 in 10.0 mi NNW 16.1 mph 21.9 mph N/A   Overcast
6:14 PM 42.8 °F 36.2 °F 39.2 °F 87% 29.98 in 10.0 mi NNW 12.7 mph - N/A   Overcast
6:35 PM 42.8 °F 37.0 °F 39.2 °F 87% 29.99 in 10.0 mi NNW 10.4 mph - N/A   Overcast
6:55 PM 42.8 °F 36.6 °F 39.2 °F 87% 30.00 in 10.0 mi NNW 11.5 mph - N/A   Overcast
7:14 PM 42.8 °F 36.6 °F 39.2 °F 87% 30.00 in 10.0 mi NNW 11.5 mph - N/A   Overcast
7:35 PM 42.8 °F 37.0 °F 39.2 °F 87% 30.01 in 10.0 mi NNW 10.4 mph - N/A   Overcast
7:55 PM 42.8 °F 36.6 °F 39.2 °F 87% 30.01 in 10.0 mi NNW 11.5 mph - N/A   Overcast
8:14 PM 42.8 °F 35.8 °F 39.2 °F 87% 30.01 in 10.0 mi NNW 13.8 mph - N/A   Overcast
8:35 PM 42.8 °F 36.6 °F 39.2 °F 87% 30.02 in 10.0 mi NNW 11.5 mph - N/A   Overcast
8:55 PM 42.8 °F 37.5 °F 39.2 °F 87% 30.02 in 10.0 mi NNW 9.2 mph - N/A   Overcast
9:15 PM 41.0 °F 35.8 °F 39.2 °F 93% 30.02 in 10.0 mi NW 8.1 mph - N/A   Overcast
9:35 PM 41.0 °F 36.4 °F 39.2 °F 93% 30.03 in 10.0 mi NW 6.9 mph - N/A   Overcast
9:54 PM 41.0 °F 36.4 °F 39.2 °F 93% 30.03 in 10.0 mi NW 6.9 mph - N/A   Overcast
10:15 PM 41.0 °F 35.8 °F 39.2 °F 93% 30.03 in 10.0 mi NW 8.1 mph - N/A   Overcast
10:35 PM 41.0 °F 36.4 °F 39.2 °F 93% 30.03 in 10.0 mi NW 6.9 mph - N/A   Overcast
10:54 PM 41.0 °F 36.4 °F 39.2 °F 93% 30.03 in 10.0 mi NW 6.9 mph - N/A   Overcast
11:15 PM 41.0 °F 37.1 °F 39.2 °F 93% 30.03 in 10.0 mi NNW 5.8 mph - N/A   Overcast
11:35 PM 39.2 °F 35.0 °F 39.2 °F 100% 30.03 in 10.0 mi NW 5.8 mph - N/A   Overcast
11:54 PM 39.2 °F 35.0 °F 39.2 °F 100% 30.03 in 10.0 mi NNW 5.8 mph - N/A   Overcast